Mason City, IA

9:23 AM CDT on May 29, 2017 (GMT -0500)
Mason City Municipal

Weather History for KMCW - May, 2014

Change the Weather History Date:

Wednesday, May 7, 2014

  Actual Average Record
Temperature  
Mean Temperature 67 °F 55 °F  
Max Temperature 84 °F 67 °F 89 °F (1934)
Min Temperature 50 °F 44 °F 26 °F (1989)
Degree Days  
Heating Degree Days 0 10  
Month to date heating degree days 86 77  
Since 1 July heating degree days 8449 7477  
Cooling Degree Days 2 0  
Month to date cooling degree days 2 0  
Year to date cooling degree days 2 5  
Growing Degree Days 17 (Base 50)    
Moisture  
Dew Point 52 °F    
Average Humidity 61    
Maximum Humidity 73    
Minimum Humidity 48    
Precipitation  
Precipitation 0.00 in 0.14 in 1.10 in (1974)
Month to date precipitation 0.16 0.99  
Year to date precipitation 11.87 8.79  
Snow  
Snow 0.00 in 0.00 in - ()
Month to date snowfall 0.0 0.1  
Since 1 July snowfall 58.0 41.3  
Snow Depth 0.00 in    
Sea Level Pressure  
Sea Level Pressure 29.63 in    
Wind  
Wind Speed 16 mph (ESE)    
Max Wind Speed 28 mph    
Max Gust Speed 33 mph    
Visibility 10 miles    
Events      
T = Trace of Precipitation, MM = Missing Value Source: NWS Daily Summary

Daily Weather History Graph

Daily Weather History Graph

Search for Another Location

Airport or City:

Trip Planner

Search our weather history database for the weather conditions in past years. The results will help you decide how hot, cold, wet, or windy it might be!

Date:

Astronomy

May. 07, 2014 Rise Set
Actual Time 5:58 AM CDT 8:21 PM CDT
Civil Twilight 5:27 AM CDT 8:53 PM CDT
Nautical Twilight 4:47 AM CDT 9:33 PM CDT
Astronomical Twilight 4:03 AM CDT 10:17 PM CDT
Moon 1:16 PM CDT (5/7) 2:09 AM CDT (5/7)
Length of Visible Light 15h 26m
Length of Day
14h 22m
First Quarter, 55% of the Moon is Illuminated
May 7
First Quarter
May 14
Full
May 21
Last Quarter
May 28
New
Jun 5
First Quarter

Hourly Weather History & Observations

Time (CDT) Temp. Heat Index Dew Point Humidity Pressure Visibility Wind Dir Wind Speed Gust Speed Precip Events Conditions
12:53 AM 57.0 °F - 39.9 °F 53% 29.70 in 10.0 mi ESE 21.9 mph 26.5 mph N/A   Overcast
1:53 AM 55.0 °F - 41.0 °F 59% 29.68 in 10.0 mi ESE 15.0 mph - N/A   Clear
2:53 AM 54.0 °F - 42.1 °F 64% 29.67 in 10.0 mi ESE 16.1 mph - N/A   Mostly Cloudy
3:53 AM 53.1 °F - 41.0 °F 64% 29.66 in 10.0 mi East 13.8 mph - N/A   Clear
4:53 AM 52.0 °F - 41.0 °F 66% 29.65 in 10.0 mi ESE 13.8 mph - N/A   Clear
5:53 AM 51.1 °F - 41.0 °F 68% 29.68 in 10.0 mi East 11.5 mph - N/A   Clear
6:53 AM 50.0 °F - 41.0 °F 71% 29.70 in 10.0 mi NE 12.7 mph - N/A   Clear
7:53 AM 52.0 °F - 42.1 °F 69% 29.70 in 10.0 mi ENE 13.8 mph - N/A   Overcast
8:53 AM 55.0 °F - 43.0 °F 64% 29.68 in 10.0 mi East 16.1 mph - N/A   Clear
9:53 AM 60.1 °F - 46.0 °F 60% 29.67 in 10.0 mi ESE 17.3 mph - N/A   Mostly Cloudy
10:53 AM 62.1 °F - 48.0 °F 60% 29.68 in 10.0 mi East 20.7 mph - N/A   Overcast
11:53 AM 64.4 °F - 50.0 °F 59% 29.69 in 10.0 mi ESE 16.1 mph - N/A   Overcast
12:53 PM 70.0 °F - 53.1 °F 55% 29.64 in 10.0 mi ESE 18.4 mph - N/A   Partly Cloudy
1:53 PM 75.0 °F - 55.9 °F 51% 29.63 in 10.0 mi East 17.3 mph - N/A   Scattered Clouds
2:53 PM 81.0 °F 81.6 °F 60.1 °F 49% 29.60 in 10.0 mi ESE 19.6 mph - N/A   Partly Cloudy
3:53 PM 82.9 °F 83.7 °F 62.1 °F 49% 29.58 in 10.0 mi ESE 21.9 mph 32.2 mph N/A   Clear
4:53 PM 81.0 °F 81.7 °F 61.0 °F 50% 29.56 in 10.0 mi ESE 17.3 mph 26.5 mph N/A   Clear
5:53 PM 84.0 °F 84.5 °F 62.1 °F 47% 29.55 in 10.0 mi SSE 20.7 mph 32.2 mph N/A   Partly Cloudy
6:53 PM 82.9 °F 84.0 °F 63.0 °F 51% 29.56 in 10.0 mi SSE 17.3 mph - N/A   Clear
7:53 PM 79.0 °F - 62.1 °F 56% 29.56 in 10.0 mi SE 11.5 mph - N/A   Clear
8:53 PM 73.9 °F - 63.0 °F 68% 29.56 in 10.0 mi ESE 11.5 mph - N/A   Clear
9:53 PM 73.9 °F - 62.1 °F 66% 29.56 in 10.0 mi ESE 16.1 mph - N/A   Clear
10:53 PM 72.0 °F - 61.0 °F 68% 29.59 in 10.0 mi ESE 15.0 mph - N/A   Clear
11:53 PM 70.0 °F - 60.1 °F 71% 29.60 in 10.0 mi SE 13.8 mph - N/A   Clear